Total_Precipitation_Accumulation
1.01 0.90 1.06 0.83 0.80 1.66 1.07 1.16 1.54 1.84 2.08 2.24 3.46 2.64 2.39 2.07 1.94 2.17 1.87 1.95 1.76 1.28 0.96 1.44 1.44 1.18 0.81 0.98 1.19 1.08 1.22 1.76 1.16 0.41 0.42 0.84 1.31 1.48 0.98 0.82 0.74 0.51 1.10
1.46 1.67 1.37 1.54 1.46 1.29 1.33 1.22 1.49 1.99 2.25 2.66 3.02 2.87 2.68 2.26 2.74 2.40 1.92 1.71 1.51 1.16 1.19 1.97 1.21 1.59 1.44 1.07 1.19 1.24 1.39 1.96 1.84 1.06 0.60 0.36 0.97 1.19 1.00 1.09 0.67 0.64 0.87
2.20 2.30 2.09 1.83 1.49 1.71 1.80 2.02 1.93 2.11 2.69 3.01 2.93 3.03 2.71 2.21 2.42 2.45 2.25 1.72 1.29 1.15 1.25 1.50 1.55 2.13 1.97 1.88 1.53 1.62 1.44 1.70 1.96 1.44 0.86 0.46 0.79 1.32 1.81 1.34 1.23 1.09 1.08
2.80 2.79 2.33 1.89 1.78 1.85 2.08 2.34 2.62 2.43 3.14 3.73 3.58 2.65 1.80 1.71 1.51 1.49 1.78 1.96 1.38 0.99 1.61 1.66 1.62 1.73 1.86 2.20 1.95 2.14 2.29 1.97 2.28 1.39 0.82 0.63 0.73 1.03 1.87 1.69 1.90 1.76 1.41
2.27 2.65 3.09 3.14 2.59 2.60 2.47 3.10 3.89 3.36 3.94 4.67 3.49 2.18 1.56 1.54 1.30 1.39 1.36 1.46 1.55 1.42 1.57 1.95 1.80 2.12 2.28 1.96 2.00 1.74 2.17 2.26 1.79 1.31 0.93 0.74 1.00 1.65 1.88 2.08 1.99 1.51 1.65
2.62 2.43 2.63 3.46 3.42 2.85 2.80 2.89 3.21 3.28 3.40 3.52 2.23 1.92 2.11 2.03 2.10 1.60 1.54 1.52 1.84 1.68 1.62 1.72 1.54 1.49 1.34 1.42 1.38 1.30 1.67 1.88 1.72 1.80 1.41 1.25 1.55 1.77 2.03 2.34 2.74 2.79 2.19
3.84 2.81 2.51 2.94 2.56 2.83 3.31 3.26 2.40 2.31 2.37 1.99 1.90 1.88 1.83 2.18 2.02 1.64 1.77 1.62 1.59 1.60 1.69 1.86 1.53 1.19 1.57 1.31 1.71 1.90 1.59 1.53 1.59 2.22 1.62 1.38 1.36 1.88 2.02 1.82 1.98 2.44 1.97
3.45 3.59 3.51 3.42 3.74 3.59 2.86 2.11 1.87 1.87 1.92 2.12 1.69 1.45 2.29 2.03 2.74 2.44 2.35 1.77 1.33 1.37 1.43 1.50 1.50 1.51 1.63 1.39 1.48 1.34 1.14 1.11 1.42 1.42 1.05 1.23 1.18 1.63 1.75 1.90 1.72 1.54 1.19
4.42 5.71 5.43 3.61 2.81 2.45 2.18 2.07 1.93 1.91 1.69 1.76 2.00 2.27 2.55 2.56 2.77 2.46 2.33 1.78 1.41 1.24 1.46 1.30 1.27 1.04 1.62 2.10 2.07 1.65 1.65 1.74 2.17 2.08 1.74 1.49 1.46 1.69 1.94 1.82 1.68 1.91 1.52
6.30 5.34 5.45 4.91 3.63 2.85 3.03 3.22 3.19 3.13 2.75 2.86 3.54 3.53 3.52 2.88 3.09 2.70 1.98 1.50 1.56 1.57 1.38 1.38 2.07 1.83 2.76 3.37 3.41 2.87 2.34 1.99 1.76 1.81 1.62 1.33 1.27 1.25 1.76 1.50 1.91 2.00 1.92
5.64 6.10 5.51 4.81 4.89 4.32 4.33 4.30 4.14 4.16 4.20 3.81 4.02 3.47 3.37 3.10 2.79 2.72 2.86 2.26 2.11 2.39 2.11 2.12 2.14 2.12 2.18 2.40 2.58 1.81 1.36 1.44 1.49 1.41 1.45 1.34 1.38 1.42 1.61 1.71 2.59 2.91 3.04
7.93 6.89 6.89 6.18 5.89 6.30 5.62 5.18 5.30 5.06 5.08 4.87 4.71 4.51 4.53 4.60 4.96 4.69 4.65 3.24 2.65 2.42 1.96 1.70 1.56 1.53 1.42 1.53 1.32 1.08 1.10 1.13 1.34 1.73 2.21 2.55 2.50 2.38 2.31 2.35 2.62 2.57 2.35
3.56 4.18 5.29 6.42 5.48 5.15 5.35 5.86 6.32 5.78 5.04 5.84 6.82 7.13 6.84 5.59 4.54 3.72 3.06 2.64 2.39 2.20 1.85 1.86 1.72 1.38 1.14 0.92 0.89 1.07 1.15 1.18 1.35 1.61 1.71 1.87 1.92 1.86 1.78 1.91 1.79 1.55 1.67
2.40 2.32 2.58 3.18 3.14 3.28 3.25 3.71 4.89 6.53 6.56 6.76 7.95 7.61 6.85 5.82 4.69 3.58 3.19 2.72 2.35 1.92 1.61 1.48 1.34 1.12 1.09 1.00 1.04 1.10 1.15 1.50 1.66 1.51 1.60 1.50 1.34 1.35 1.33 1.47 1.66 1.56 1.40
1.48 1.50 1.54 2.03 2.51 2.76 3.24 3.11 2.94 3.55 4.59 5.67 6.69 6.97 6.41 5.77 5.55 5.30 4.30 3.94 3.69 3.61 3.30 2.60 2.17 1.78 1.51 1.26 1.13 1.15 1.24 1.34 1.49 1.48 1.59 1.75 1.72 1.58 1.36 1.27 1.46 1.54 1.19
1.13 1.31 1.51 1.68 1.72 1.96 2.49 2.76 3.32 3.73 3.93 3.95 4.64 4.60 4.26 4.15 4.49 4.79 5.15 5.31 4.94 4.23 3.22 2.35 2.01 1.85 1.87 1.91 2.01 1.94 1.73 1.75 1.52 1.62 1.74 1.72 1.55 1.44 1.29 1.12 1.15 1.07 0.79
0.93 0.92 1.16 1.13 1.10 1.62 2.10 2.00 1.86 2.33 2.61 2.56 2.40 2.26 2.19 2.05 2.17 2.24 2.98 3.54 3.65 3.23 2.11 2.11 2.07 2.02 2.04 2.05 2.02 1.83 1.86 2.07 2.26 2.19 1.95 1.77 1.74 1.72 1.69 1.38 1.27 1.28 1.14
1.19 1.38 1.48 1.28 1.32 1.28 1.69 1.84 1.70 1.79 1.41 1.32 1.56 1.52 1.55 1.90 1.96 2.21 2.64 2.53 2.24 2.34 2.17 1.65 1.74 1.79 1.90 1.95 1.89 1.63 1.44 1.64 2.09 2.41 2.36 2.16 2.08 1.89 1.79 1.55 1.39 1.43 1.53
1.83 1.28 1.22 1.56 1.80 1.81 1.75 1.67 1.39 1.16 1.20 1.13 1.06 1.30 1.24 1.23 1.48 1.93 2.35 1.85 1.87 1.94 2.32 2.64 2.54 2.08 1.69 1.85 2.25 2.35 2.22 2.15 2.45 2.39 2.13 2.08 1.93 1.92 1.70 1.62 1.82 2.24 2.71
1.71 2.01 1.60 2.05 3.43 3.81 3.65 3.02 2.58 2.31 1.94 1.83 1.59 1.80 1.77 1.79 1.61 1.79 2.27 2.54 2.71 2.44 2.22 2.41 2.68 2.90 3.18 2.62 2.72 2.75 2.39 2.32 2.38 2.94 3.53 3.97 4.63 5.29 5.06 4.41 4.07 4.13 3.98
1.46 1.47 1.38 1.31 1.44 1.67 2.44 2.95 2.86 2.69 2.53 2.59 2.64 2.86 2.90 3.02 2.87 3.03 3.50 4.03 3.86 3.73 3.59 3.71 4.31 4.35 4.07 4.22 4.12 3.95 4.02 4.16 4.24 4.41 4.58 4.58 4.31 3.95 3.93 3.58 3.26 3.08 2.90
1.59 1.31 1.13 1.21 1.11 1.08 0.90 1.09 1.62 1.56 1.36 1.34 1.40 1.72 1.85 1.42 1.46 1.63 1.92 2.24 2.56 2.60 2.67 2.66 2.37 2.70 2.76 2.80 2.88 2.92 3.01 2.97 2.84 2.81 2.71 2.81 2.73 2.42 2.30 2.38 2.60 2.55 2.32
1.55 1.44 1.11 0.97 0.83 0.96 0.94 0.93 0.90 1.01 1.32 1.31 1.02 0.89 0.94 0.77 0.76 0.80 0.74 0.78 0.89 0.97 1.08 1.35 1.22 1.24 1.32 1.60 1.61 1.73 1.62 1.63 1.67 1.93 2.29 2.59 2.71 2.47 2.11 2.21 2.35 2.34 1.83
1.42 1.50 1.25 1.00 0.91 0.77 0.64 0.60 0.69 0.74 0.63 0.62 0.56 0.57 0.54 0.49 0.52 0.56 0.54 0.56 0.54 0.55 0.60 0.65 0.71 0.71 0.76 0.76 0.82 0.94 0.97 0.90 0.91 0.84 1.06 1.41 1.46 1.78 1.95 1.87 1.78 1.33 1.24
0.98 1.02 0.99 0.99 1.08 1.10 1.12 0.82 0.69 0.68 0.63 0.54 0.50 0.46 0.44 0.39 0.37 0.38 0.38 0.37 0.30 0.30 0.32 0.35 0.32 0.34 0.45 0.51 0.51 0.52 0.72 0.92 0.87 0.81 0.69 0.69 0.70 0.79 1.09 1.30 1.57 1.60 1.49
1.55 1.26 1.06 0.91 0.85 1.18 1.62 1.57 1.49 1.60 1.44 1.26 1.01 0.84 0.69 0.71 0.62 0.45 0.37 0.29 0.29 0.25 0.21 0.23 0.25 0.30 0.28 0.29 0.34 0.48 0.54 0.47 0.41 0.43 0.32 0.27 0.35 0.44 0.66 0.87 1.15 1.49 1.73